Weather observations for the past three days for
Rota Island, N. Mariana Is, Rota International Airport
Metric (Imperial)
Date Time (chst) Wind (kph) Vis. (km) Weather Sky Cond. Temperature (ºC) Relative Humidity Wind Chill (°C) Heat Index (°C) Pressure Precipitation (cm)
Air Dwpt 6 hour altimeter (cm) sea level (mb) 1 hr 3 hr 6 hr
Max. Min.
08 17:50 E 26 G 37 11.27 Overcast BKN012 OVC100 27 25 89% 31 75.84 0.0
08 16:50 E 30 G 46 11.27 Overcast BKN012 OVC120 27 24 84% 30 75.82 0.0
08 15:50 E 31 G 46 11.27 Showers in Vicinity BKN012 OVC120 27 25 89% 31 75.82 0.0
08 14:50 E 33 G 48 11.27 Showers in Vicinity and Breezy BKN012 OVC130 28 25 84% 33 75.82 0.0
08 13:50 E 33 G 52 11.27 Showers in Vicinity and Breezy BKN013 BKN140 28 25 84% 33 75.82 0.0
08 12:50 E 31 G 46 11.27 Overcast BKN013 OVC140 27 25 89% 31 75.84 0.0
08 11:50 E 30 G 43 11.27 Mostly Cloudy SCT013 BKN140 28 25 84% 33 75.84 0.0
08 10:50 E 20 G 30 11.27 Mostly Cloudy BKN012 BKN140 27 25 89% 31 75.9 0.0
08 09:50 E 24 G 35 11.27 Mostly Cloudy BKN013 BKN140 27 24 84% 30 75.9 0.0
08 08:50 E 26 G 39 11.27 Showers in Vicinity BKN012 BKN140 27 24 84% 30 75.9 0.0
08 07:50 E 20 G 31 11.27 Mostly Cloudy BKN012 BKN140 26 24 89% 28 75.9 0.0
08 06:50 E 22 G 33 11.27 Showers in Vicinity BKN012 26 24 89% 28 75.87 0.0
07 17:50 E 26 G 37 11.27 Mostly Cloudy BKN012 27 25 89% 31 75.77 0.0
07 16:50 E 28 G 41 11.27 Mostly Cloudy BKN012 28 26 89% 34 75.77 0.0
07 15:50 E 30 G 43 11.27 Mostly Cloudy BKN012 29 26 84% 36 75.77 0.0
07 14:50 E 31 G 44 11.27 Mostly Cloudy BKN012 28 26 89% 34 75.74 0.0
07 13:50 E 30 G 41 11.27 Mostly Cloudy BKN012 28 26 89% 34 75.79 0.0
07 12:50 E 26 G 35 11.27 Mostly Cloudy BKN012 28 25 84% 33 75.82 0.0
07 11:50 E 28 G 37 11.27 Mostly Cloudy BKN013 27 25 89% 31 75.87 0.0
07 10:50 E 24 G 33 11.27 Mostly Cloudy BKN012 28 26 89% 34 75.9 0.0
07 09:50 E 26 G 35 11.27 Mostly Cloudy BKN012 27 25 89% 31 75.9 0.0
07 08:50 E 22 G 31 11.27 Mostly Cloudy BKN011 BKN120 27 25 89% 31 75.92 0.0
07 07:50 E 20 G 30 11.27 Mostly Cloudy BKN013 BKN120 26 25 94% 28 75.9 0.0
07 06:50 E 15 G 26 11.27 Mostly Cloudy BKN130 BKN120 26 25 94% 28 75.87 0.0
06 17:50 E 37 G 52 11.27 Mostly Cloudy and Breezy BKN012 BKN120 27 23 79% 30 75.82 0.0
06 16:50 E 41 G 56 11.27 Mostly Cloudy and Breezy BKN012 BKN120 28 25 84% 33 75.77 0.0
06 15:50 E 44 G 57 11.27 Mostly Cloudy and Windy BKN012 BKN120 30 25 75% 36 75.79 0.0
06 14:50 E 41 G 54 11.27 Mostly Cloudy and Breezy BKN012 BKN120 28 25 84% 33 75.82 0.0
06 13:50 E 37 G 52 11.27 Mostly Cloudy and Breezy SCT012 BKN120 27 24 84% 30 75.82 0.0
06 12:50 E 33 G 46 11.27 Mostly Cloudy and Breezy BKN011 BKN090 27 25 89% 31 75.84 0.0
06 11:50 E 30 G 41 11.27 Light Rain BKN010 OVC100 27 25 89% 31 75.92 0.0
06 10:50 E 26 G 37 11.27 Mostly Cloudy BKN012 BKN100 28 25 84% 33 75.97 0.0
06 09:50 E 26 G 35 11.27 Mostly Cloudy BKN012 27 25 89% 31 75.97 0.0
06 08:50 E 22 G 37 11.27 Mostly Cloudy BKN012 BKN120 27 25 89% 31 75.97 0.0
06 07:50 E 19 G 33 11.27 Mostly Cloudy BKN012 BKN120 26 25 94% 28 75.95 0.0
06 06:55 E 28 G 44 11.27 Showers in Vicinity BKN013 BKN120 25 24 94% 26 75.9 0.0
Date Time (chst) Wind (kph) Vis. (km) Weather Sky Cond. Air Dwpt Max. Min. Relative Humidity Wind Chill (°C) Heat Index (°C) altimeter (cm) sea level (mb) 1 hr 3 hr 6 hr
6 hour
Temperature (ºC) Pressure Precipitation (cm)